EXPRESS-AM44            
1 33595U 09007A   19259.18662409 -.00000096  00000-0  00000+0 0  9998
2 33595   0.0270 285.8685 0000330 313.1244 172.0373  1.00272086 38833
EXPRESS-MD1             
1 33596U 09007B   19258.79570898 -.00000102  00000-0  00000+0 0  9993
2 33596   4.6671  71.4001 0010378 283.0730 115.2073  0.99114231 38614
BREEZE-M DEB [TANK]     
1 33597U 09007C   19258.80966179  .00087577  69783-6  18934-2 0  9994
2 33597  44.5458  88.1006 7223111 133.8462 314.8658  2.40171355 88803
BREEZE-M R/B            
1 33598U 09007D   19258.75444639 -.00000272  00000-0  00000+0 0  9992
2 33598   8.0446  52.4081 0206034   4.9165 191.3480  0.97632589 38187